TimeCST,TemperatureF,Dew PointF,Humidity,Sea Level PressureIn,VisibilityMPH,Wind Direction,Wind SpeedMPH,Gust SpeedMPH,PrecipitationIn,Events,Conditions,WindDirDegrees,DateUTC
12:15 AM,34.9,29.8,82,29.83,10.0,ENE,18.4,-,N/A,,Overcast,70,2013-02-26 06:15:00
12:35 AM,34.7,30.0,83,29.83,10.0,East,17.3,23.0,N/A,,Overcast,80,2013-02-26 06:35:00
12:55 AM,34.7,29.8,82,29.80,10.0,ENE,19.6,-,N/A,,Overcast,70,2013-02-26 06:55:00
1:15 AM,34.7,29.8,82,29.79,10.0,ENE,18.4,-,N/A,,Overcast,70,2013-02-26 07:15:00
1:35 AM,34.5,29.8,83,29.77,10.0,ENE,18.4,24.2,N/A,,Overcast,70,2013-02-26 07:35:00
1:55 AM,34.7,29.7,82,29.75,10.0,ENE,21.9,25.3,N/A,,Overcast,70,2013-02-26 07:55:00
2:15 AM,34.3,29.8,84,29.72,10.0,ENE,16.1,24.2,N/A,,Overcast,60,2013-02-26 08:15:00
2:35 AM,34.2,29.8,84,29.69,10.0,NE,23.0,-,N/A,,Overcast,50,2013-02-26 08:35:00
2:55 AM,34.2,29.7,84,29.67,10.0,NE,25.3,29.9,N/A,,Overcast,50,2013-02-26 08:55:00
3:15 AM,34.0,29.7,84,29.66,10.0,ENE,24.2,31.1,N/A,,Overcast,60,2013-02-26 09:15:00
3:35 AM,34.0,29.5,84,29.63,10.0,NE,26.5,31.1,N/A,,Overcast,50,2013-02-26 09:35:00
3:55 AM,34.0,29.7,84,29.65,10.0,ENE,19.6,27.6,N/A,,Overcast,60,2013-02-26 09:55:00
4:15 AM,33.8,29.8,85,29.62,10.0,NE,26.5,29.9,N/A,Snow,Light Snow,50,2013-02-26 10:15:00
4:35 AM,34.0,29.7,84,29.61,10.0,NE,28.8,33.4,N/A,,Overcast,50,2013-02-26 10:35:00
4:55 AM,34.0,29.3,83,29.60,10.0,ENE,25.3,33.4,N/A,,Overcast,60,2013-02-26 10:55:00
5:15 AM,33.1,30.6,90,29.61,4.0,ENE,21.9,32.2,N/A,Snow,Light Snow,70,2013-02-26 11:15:00
5:35 AM,33.8,29.8,85,29.60,7.0,ENE,21.9,27.6,N/A,Snow,Light Snow,60,2013-02-26 11:35:00
5:55 AM,32.7,31.1,94,29.59,1.5,ENE,25.3,32.2,N/A,Snow,Light Snow,60,2013-02-26 11:55:00
6:15 AM,32.0,31.8,99,29.58,0.5,NE,24.2,32.2,N/A,Snow,Snow,50,2013-02-26 12:15:00
6:35 AM,32.0,32.0,100,29.57,0.2,NE,29.9,35.7,N/A,Snow,Heavy Snow,50,2013-02-26 12:35:00
6:55 AM,32.0,32.0,100,29.57,0.2,NE,31.1,38.0,N/A,Snow,Snow,50,2013-02-26 12:55:00
7:15 AM,32.0,32.0,100,29.57,0.2,NE,27.6,34.5,N/A,Snow,Snow,50,2013-02-26 13:15:00
7:35 AM,32.0,32.0,100,29.55,0.2,NE,29.9,36.8,N/A,Snow,Snow,50,2013-02-26 13:35:00
7:55 AM,32.0,32.0,100,29.56,0.2,NE,28.8,34.5,0.01,Snow,Heavy Snow,50,2013-02-26 13:55:00
8:15 AM,32.0,32.0,100,29.54,0.2,NE,29.9,36.8,N/A,Snow,Snow,40,2013-02-26 14:15:00
8:35 AM,32.0,32.0,100,29.54,0.8,NE,26.5,36.8,0.01,Snow,Light Snow,40,2013-02-26 14:35:00
8:55 AM,32.0,32.0,100,29.55,3.0,NE,21.9,27.6,0.02,Rain,Light Rain,50,2013-02-26 14:55:00
9:15 AM,32.0,32.0,100,29.55,1.2,NE,24.2,28.8,0.01,Snow,Light Snow,50,2013-02-26 15:15:00
9:35 AM,32.0,32.0,100,29.53,0.8,NE,23.0,29.9,0.02,Snow,Light Snow,50,2013-02-26 15:35:00
9:55 AM,32.2,32.0,99,29.53,1.8,NE,23.0,29.9,0.03,Snow,Light Snow,50,2013-02-26 15:55:00
10:15 AM,32.0,32.0,100,29.53,2.5,NE,23.0,26.5,N/A,,Overcast,50,2013-02-26 16:15:00
10:35 AM,32.0,32.0,100,29.53,3.0,NE,20.7,26.5,N/A,,Overcast,50,2013-02-26 16:35:00
10:55 AM,32.0,32.0,100,29.53,1.0,NE,23.0,-,N/A,Snow,Light Snow,50,2013-02-26 16:55:00
11:15 AM,32.4,32.4,100,29.52,1.8,NE,20.7,-,N/A,Rain,Light Rain,50,2013-02-26 17:15:00
11:35 AM,32.5,32.5,100,29.53,2.0,NE,21.9,28.8,N/A,,Overcast,50,2013-02-26 17:35:00
11:55 AM,32.2,32.2,100,29.52,1.2,NE,20.7,-,N/A,Snow,Light Snow,50,2013-02-26 17:55:00
12:15 PM,32.2,32.2,100,29.52,1.5,NE,21.9,-,0.01,Snow,Light Snow,50,2013-02-26 18:15:00
12:35 PM,32.0,32.0,100,29.52,2.5,NE,20.7,28.8,0.01,,Overcast,50,2013-02-26 18:35:00
12:55 PM,32.2,32.2,100,29.51,2.5,NE,16.1,-,0.01,,Overcast,40,2013-02-26 18:55:00
1:15 PM,32.0,32.0,100,29.50,1.5,NNE,19.6,-,N/A,,Overcast,30,2013-02-26 19:15:00
1:35 PM,32.0,32.0,100,29.50,1.0,NE,20.7,27.6,N/A,Snow,Light Snow,40,2013-02-26 19:35:00
1:55 PM,32.0,32.0,100,29.51,1.0,NE,20.7,24.2,N/A,Snow,Light Snow,40,2013-02-26 19:55:00
2:15 PM,32.0,32.0,100,29.51,1.0,NE,20.7,25.3,N/A,Snow,Light Snow,40,2013-02-26 20:15:00
2:35 PM,32.0,32.0,100,29.51,1.2,NE,20.7,26.5,N/A,Snow,Light Snow,40,2013-02-26 20:35:00
2:55 PM,32.0,32.0,100,29.52,1.5,NNE,19.6,-,N/A,Snow,Light Snow,30,2013-02-26 20:55:00
3:15 PM,32.0,32.0,100,29.52,2.0,NNE,18.4,-,N/A,Snow,Light Snow,30,2013-02-26 21:15:00
3:35 PM,32.0,32.0,100,29.53,1.8,NNE,19.6,26.5,N/A,Snow,Light Snow,30,2013-02-26 21:35:00
3:55 PM,32.0,32.0,100,29.53,1.8,North,17.3,23.0,N/A,Snow,Light Snow,10,2013-02-26 21:55:00
4:15 PM,32.0,32.0,100,29.54,1.2,North,19.6,-,N/A,Snow,Light Snow,10,2013-02-26 22:15:00
4:35 PM,31.6,31.6,100,29.55,1.5,North,19.6,-,N/A,Snow,Light Snow,10,2013-02-26 22:35:00
4:55 PM,31.5,31.5,100,29.55,1.5,NNE,19.6,24.2,N/A,Snow,Light Snow,20,2013-02-26 22:55:00
5:15 PM,31.1,31.1,100,29.56,4.0,NNE,19.6,-,N/A,,Overcast,20,2013-02-26 23:15:00
5:35 PM,31.3,31.3,100,29.56,10.0,NNE,21.9,26.5,N/A,,Overcast,20,2013-02-26 23:35:00
5:55 PM,31.3,31.3,100,29.57,5.0,NNE,24.2,-,N/A,,Overcast,20,2013-02-26 23:55:00
6:15 PM,31.5,31.5,100,29.58,3.0,North,16.1,21.9,N/A,Snow,Light Snow,10,2013-02-27 00:15:00
6:35 PM,31.5,31.5,100,29.59,3.0,North,15.0,-,N/A,Snow,Light Snow,10,2013-02-27 00:35:00
6:55 PM,31.3,31.3,100,29.59,4.0,North,17.3,21.9,N/A,Snow,Light Snow,360,2013-02-27 00:55:00
7:15 PM,30.9,30.9,100,29.60,3.0,North,17.3,23.0,N/A,,Overcast,360,2013-02-27 01:15:00
7:35 PM,30.9,30.9,100,29.61,3.0,North,15.0,-,N/A,Snow,Light Snow,360,2013-02-27 01:35:00
7:55 PM,30.7,30.7,100,29.61,2.0,North,15.0,-,N/A,Snow,Light Snow,360,2013-02-27 01:55:00
8:15 PM,30.7,30.7,100,29.62,1.5,North,13.8,-,N/A,Snow,Light Snow,360,2013-02-27 02:15:00
8:35 PM,30.9,30.9,100,29.62,1.8,North,15.0,-,N/A,Snow,Light Snow,350,2013-02-27 02:35:00
8:55 PM,30.9,30.9,100,29.62,1.2,NNW,12.7,-,N/A,Snow,Light Snow,340,2013-02-27 02:55:00
9:15 PM,30.7,30.7,100,29.63,1.2,NNW,13.8,-,N/A,Snow,Light Snow,340,2013-02-27 03:15:00
9:35 PM,30.7,30.7,100,29.63,1.8,NNW,13.8,-,N/A,Snow,Light Snow,340,2013-02-27 03:35:00
9:55 PM,30.7,30.7,100,29.63,2.0,NNW,13.8,-,N/A,Snow,Light Snow,340,2013-02-27 03:55:00
10:15 PM,30.7,30.7,100,29.63,2.5,NNW,15.0,-,N/A,Snow,Light Snow,340,2013-02-27 04:15:00
10:35 PM,30.2,30.2,100,29.63,3.0,NNW,15.0,-,N/A,Snow,Light Snow,340,2013-02-27 04:35:00
10:55 PM,30.7,30.7,100,29.63,4.0,NNW,17.3,-,N/A,,Overcast,340,2013-02-27 04:55:00
11:15 PM,30.9,30.9,100,29.63,5.0,NNW,17.3,-,N/A,,Overcast,330,2013-02-27 05:15:00
11:35 PM,30.9,30.9,100,29.63,7.0,NNW,16.1,21.9,N/A,,Overcast,330,2013-02-27 05:35:00
11:55 PM,31.1,31.1,100,29.63,10.0,NNW,17.3,-,N/A,,Overcast,330,2013-02-27 05:55:00